Regional Weather Roundup
Issued by NWS

Home | Current Version | Previous Version | Graphics & Text | Print | Product List | Glossary On
Versions: 1 2 3 4 5 6 7 8 9 10 11 12 13 14 15 16 17 18 19 20 21 22 23 24 25 26 27 28 29 30 31 32 33 34 35 36 37 38 39 40 41 42 43 44 45 46 47 48 49 50
000
ASUS45 KPSR 261900
RWRAZ

PRELIMINARY ARIZONA REGIONAL HOURLY WEATHER ROUNDUP
NATIONAL WEATHER SERVICE PHOENIX AZ
1200 PM MST THU FEB 26 2015

NOTE: FAIR INDICATES FEW OR NO CLOUDS BELOW 12,000 FEET WITH NO
SIGNIFICANT WEATHER AND/OR OBSTRUCTIONS TO VISIBILITY.

AZZ001>003-036-262000-
NORTHWEST ARIZONA

CITY           SKY/WX    TMP DP  RH WIND       PRES   REMARKS
KINGMAN          N/A     64  19  17 SW17G25   29.91F
$$

AZZ004>008-015-016-018-262000-
NORTH CENTRAL ARIZONA

CITY           SKY/WX    TMP DP  RH WIND       PRES   REMARKS
GRAND CANYON   CLOUDY    43  24  47 SW7       29.95F
PRESCOTT       PTSUNNY   55  17  22 VRB6      29.95F
FLAGSTAFF      NOT AVBL
PAYSON         MOSUNNY   55  19  24 S6G15     29.98F
PAGE           CLOUDY    47  25  42 N3        29.92F
$$

AZZ009>014-017-262000-
NORTHEAST ARIZONA

CITY           SKY/WX    TMP DP  RH WIND       PRES   REMARKS
WINSLOW        NOT AVBL
SAINT JOHNS    PTSUNNY   50   3  14 E5        29.96F
WINDOW ROCK    CLOUDY    39  17  41 S7        29.98F WCI  34
$$

AZZ023-262000-
GREATER PHOENIX AREA

CITY           SKY/WX    TMP DP  RH WIND       PRES   REMARKS
PHOENIX        MOSUNNY   69  31  24 CALM      29.89F
GLENDALE       MOSUNNY   68  32  26 E6        29.92F
LUKE AFB       SUNNY     67  35  30 CALM      29.89F
DEER VALLEY    SUNNY     67  29  24 S6        29.89F
SCOTTSDALE     SUNNY     68  27  21 SE3       29.92F
MESA-GATEWAY   MOSUNNY   66  34  30 CALM      29.93F
CHANDLER       MOSUNNY   68  32  26 VRB6      29.91F
$$

AZZ027-028-262000-
SOUTHWEST MARICOPA COUNTY AND PINAL COUNTY

CITY           SKY/WX    TMP DP  RH WIND       PRES   REMARKS
CASA GRANDE    SUNNY     66  30  26 CALM      29.91F
GILA BEND      SUNNY     72  20  14 NE2       29.89F
$$

AZZ503-504-507>509-262000-
SOUTHEAST ARIZONA

CITY           SKY/WX    TMP DP  RH WIND       PRES   REMARKS
TUCSON         SUNNY     67  28  23 VRB3      29.93F
DAVIS-MONTHAN  SUNNY     66  29  25 S2        29.91F
RYAN FIELD       N/A     66  32  28 W5        29.93F
NOGALES        SUNNY     67  20  16 SE8       29.94F
SIERRA VISTA   MOSUNNY   63  23  22 S5        29.97F
SAFFORD        MOSUNNY   61  32  33 SE9       29.95F
$$

AZZ020-021-025-026-031-262000-
SOUTHWEST ARIZONA

CITY           SKY/WX    TMP DP  RH WIND       PRES   REMARKS
YUMA           NOT AVBL
$$

CAZ031-033-041-043-047-048-061-262000-
SOUTHERN CALIFORNIA

CITY           SKY/WX    TMP DP  RH WIND       PRES   REMARKS
DOWNTOWN L.A.  PTSUNNY   63  49  60 VRB3      29.94F
L.A. AIRPORT   PTSUNNY   62  50  64 CALM      29.95F
SAN DIEGO      MOSUNNY   62  50  64 S7        29.96F
BURBANK        PTSUNNY   63  42  46 S5        29.93F
ONTARIO        PTSUNNY   62  43  49 SW3       29.94F
RIVERSIDE      MOSUNNY   63  42  46 CALM      29.94F
PALM SPRINGS   SUNNY     74  31  20 VRB5      29.88F
EL CENTRO NAS  MOSUNNY   73  39  29 NE8       29.86F
IMPERIAL       SUNNY     70  42  36 VRB5      29.86F
BLYTHE         SUNNY     68  28  22 CALM      29.88F
$$

NVZ020-UTZ003-262000-
SOUTHERN NEVADA-UTAH

CITY           SKY/WX    TMP DP  RH WIND       PRES   REMARKS
LAS VEGAS      NOT AVBL
SALT LAKE CITY SNOW      34  33  96 N7        29.99F VSB 1/2 WCI  28
$$

NMZ009-TXZ055-262000-
NEW MEXICO-WEST TEXAS

CITY           SKY/WX    TMP DP  RH WIND       PRES   REMARKS
ALBUQUERQUE    PTSUNNY   39  21  48 E25       30.05F WCI  28
EL PASO        MOSUNNY   55  30  38 SE16      30.04F
$$


........................KEY........................
SKY/WX - SKY CONDITION/WEATHER
TMP    - TEMPERATURE IN FAHRENHEIT
DP     - DEW POINT IN FAHRENHEIT
RH     - RELATIVE HUMIDITY IN PERCENT
WIND   - DIRECTION AND SPEED IN MILES PER HOUR (MPH)
VRB    - VARIABLE WIND DIRECTION
PRES   - MEAN SEA LEVEL PRESSURE IN INCHES OF MERCURY
         F - FALLING PRESSURE   R - RISING PRESSURE
         S - STEADY PRESSURE
VSB    - VISIBILITY IN MILES
HX     - HEAT INDEX IN FAHRENHEIT
WCI    - WIND CHILL INDEX IN FAHRENHEIT
TC     - TEMPERATURE IN CELSIUS WHICH IS ALSO KNOWN AS
         TEMPERATURE IN CENTIGRADE
AFB    - AIR FORCE BASE
         LUKE AFB IS LUKE AIR FORCE BASE
         DAVIS-MONTHAN IS DAVIS-MONTHAN AIR FORCE BASE
NAS    - NAVAL AIR STATION
         EL CENTRO NAS IS EL CENTRO NAVAL AIR STATION
N/A    - NOT AVAILABLE


USA.gov is the U.S. government's official web portal to all federal, state and local government web resources and services.